Precipitable_Water
0.45 0.53 0.58 0.64 0.60 0.58 0.56 0.51 0.47 0.48 0.46 0.44 0.41 0.42 0.40 0.44 0.44 0.46 0.46 0.47 0.47 0.47 0.47 0.47 0.48 0.50 0.49 0.49 0.50 0.50 0.47 0.47 0.50 0.42 0.39 0.43 0.50 0.54 0.54 0.59 0.59 0.58 0.59
0.39 0.47 0.54 0.60 0.59 0.57 0.55 0.49 0.45 0.45 0.45 0.46 0.44 0.44 0.44 0.45 0.46 0.46 0.46 0.47 0.48 0.49 0.48 0.48 0.48 0.50 0.48 0.48 0.48 0.47 0.44 0.46 0.50 0.40 0.39 0.31 0.39 0.51 0.55 0.60 0.61 0.60 0.66
0.33 0.40 0.49 0.56 0.60 0.57 0.54 0.49 0.45 0.45 0.48 0.48 0.47 0.46 0.46 0.45 0.43 0.45 0.46 0.48 0.50 0.50 0.50 0.50 0.50 0.51 0.51 0.49 0.49 0.49 0.46 0.41 0.48 0.50 0.43 0.35 0.31 0.40 0.47 0.52 0.61 0.61 0.65
0.33 0.38 0.46 0.52 0.56 0.59 0.59 0.54 0.50 0.50 0.51 0.49 0.47 0.43 0.39 0.37 0.42 0.45 0.48 0.49 0.52 0.51 0.51 0.51 0.50 0.51 0.51 0.50 0.50 0.51 0.49 0.47 0.40 0.47 0.53 0.53 0.51 0.40 0.36 0.49 0.54 0.60 0.62
0.34 0.36 0.44 0.53 0.61 0.63 0.60 0.58 0.55 0.54 0.52 0.50 0.51 0.45 0.43 0.43 0.46 0.47 0.46 0.47 0.49 0.51 0.51 0.51 0.49 0.48 0.49 0.49 0.48 0.48 0.47 0.47 0.44 0.44 0.45 0.47 0.48 0.49 0.45 0.38 0.46 0.54 0.59
0.37 0.40 0.47 0.56 0.60 0.64 0.62 0.62 0.59 0.56 0.55 0.54 0.50 0.46 0.45 0.43 0.43 0.44 0.42 0.43 0.46 0.48 0.50 0.51 0.50 0.50 0.49 0.48 0.47 0.47 0.47 0.47 0.47 0.48 0.47 0.45 0.43 0.44 0.45 0.43 0.44 0.45 0.49
0.37 0.41 0.45 0.52 0.59 0.62 0.63 0.64 0.62 0.59 0.60 0.55 0.53 0.51 0.49 0.48 0.43 0.42 0.43 0.42 0.44 0.47 0.48 0.50 0.50 0.51 0.51 0.51 0.50 0.48 0.48 0.49 0.48 0.49 0.48 0.49 0.49 0.51 0.50 0.47 0.44 0.44 0.52
0.37 0.41 0.47 0.52 0.58 0.63 0.66 0.66 0.65 0.64 0.63 0.61 0.58 0.56 0.54 0.50 0.48 0.47 0.47 0.48 0.49 0.50 0.53 0.53 0.53 0.53 0.53 0.53 0.52 0.51 0.51 0.52 0.51 0.50 0.52 0.51 0.53 0.55 0.54 0.51 0.47 0.42 0.46
0.39 0.41 0.46 0.53 0.57 0.62 0.66 0.68 0.69 0.69 0.67 0.65 0.63 0.60 0.60 0.56 0.52 0.52 0.54 0.54 0.56 0.56 0.56 0.55 0.54 0.55 0.55 0.54 0.53 0.52 0.51 0.53 0.53 0.52 0.53 0.52 0.54 0.56 0.57 0.57 0.56 0.48 0.39
0.42 0.45 0.48 0.51 0.57 0.62 0.68 0.71 0.72 0.72 0.70 0.67 0.65 0.63 0.62 0.60 0.58 0.58 0.56 0.59 0.60 0.61 0.59 0.58 0.56 0.55 0.55 0.54 0.53 0.52 0.53 0.52 0.53 0.55 0.53 0.53 0.55 0.57 0.59 0.59 0.59 0.58 0.51
0.44 0.47 0.51 0.55 0.59 0.63 0.68 0.70 0.72 0.72 0.71 0.70 0.68 0.65 0.63 0.62 0.61 0.60 0.61 0.61 0.62 0.63 0.61 0.59 0.57 0.55 0.54 0.54 0.53 0.53 0.54 0.52 0.52 0.54 0.53 0.54 0.57 0.56 0.59 0.61 0.61 0.58 0.59
0.49 0.51 0.53 0.55 0.58 0.62 0.67 0.71 0.73 0.73 0.73 0.71 0.68 0.65 0.64 0.61 0.59 0.59 0.61 0.63 0.62 0.63 0.62 0.61 0.58 0.57 0.56 0.55 0.55 0.53 0.52 0.51 0.52 0.54 0.56 0.56 0.60 0.60 0.63 0.62 0.61 0.62 0.65
0.49 0.52 0.54 0.55 0.58 0.63 0.69 0.72 0.73 0.73 0.73 0.73 0.71 0.64 0.63 0.60 0.59 0.60 0.63 0.64 0.63 0.63 0.62 0.60 0.56 0.55 0.55 0.53 0.52 0.53 0.54 0.56 0.57 0.58 0.58 0.59 0.60 0.59 0.61 0.62 0.63 0.63 0.66
0.48 0.51 0.53 0.55 0.61 0.66 0.70 0.72 0.74 0.74 0.71 0.72 0.71 0.67 0.62 0.60 0.59 0.62 0.64 0.65 0.65 0.61 0.58 0.56 0.55 0.54 0.52 0.51 0.52 0.54 0.56 0.57 0.59 0.62 0.63 0.61 0.62 0.61 0.62 0.63 0.63 0.64 0.62
0.46 0.49 0.52 0.56 0.60 0.63 0.68 0.71 0.72 0.72 0.72 0.68 0.65 0.62 0.61 0.60 0.62 0.65 0.66 0.67 0.63 0.59 0.56 0.54 0.52 0.51 0.49 0.50 0.54 0.56 0.57 0.57 0.60 0.63 0.64 0.65 0.67 0.66 0.66 0.64 0.62 0.62 0.61
0.45 0.50 0.54 0.57 0.59 0.62 0.65 0.68 0.69 0.71 0.72 0.69 0.65 0.64 0.61 0.63 0.65 0.66 0.66 0.61 0.58 0.56 0.54 0.51 0.49 0.48 0.50 0.53 0.56 0.57 0.57 0.60 0.61 0.62 0.65 0.65 0.67 0.67 0.67 0.66 0.66 0.65 0.62
0.46 0.48 0.53 0.56 0.59 0.62 0.66 0.66 0.68 0.72 0.69 0.67 0.66 0.65 0.65 0.62 0.63 0.63 0.59 0.55 0.54 0.54 0.52 0.50 0.48 0.47 0.49 0.53 0.56 0.58 0.59 0.60 0.62 0.63 0.64 0.64 0.65 0.64 0.65 0.65 0.65 0.66 0.65
0.46 0.48 0.50 0.50 0.57 0.62 0.65 0.69 0.70 0.68 0.67 0.66 0.66 0.66 0.61 0.58 0.61 0.55 0.53 0.53 0.52 0.51 0.49 0.48 0.47 0.46 0.49 0.54 0.56 0.58 0.60 0.61 0.63 0.64 0.65 0.63 0.63 0.64 0.63 0.63 0.59 0.57 0.56
0.48 0.49 0.51 0.51 0.51 0.56 0.64 0.69 0.67 0.67 0.66 0.65 0.64 0.59 0.57 0.57 0.49 0.49 0.51 0.52 0.51 0.49 0.47 0.46 0.44 0.46 0.48 0.53 0.57 0.59 0.60 0.61 0.62 0.64 0.62 0.60 0.59 0.57 0.55 0.52 0.47 0.45 0.45
0.48 0.48 0.51 0.50 0.48 0.56 0.68 0.67 0.65 0.65 0.62 0.62 0.57 0.59 0.59 0.49 0.47 0.49 0.50 0.52 0.51 0.48 0.46 0.43 0.43 0.47 0.49 0.53 0.57 0.59 0.59 0.58 0.60 0.60 0.56 0.50 0.46 0.48 0.48 0.45 0.43 0.41 0.42
0.49 0.52 0.54 0.53 0.54 0.59 0.63 0.62 0.63 0.61 0.62 0.58 0.56 0.58 0.54 0.49 0.50 0.50 0.50 0.49 0.47 0.45 0.43 0.41 0.41 0.45 0.49 0.51 0.56 0.57 0.59 0.59 0.58 0.55 0.49 0.50 0.51 0.48 0.46 0.45 0.42 0.41 0.41
0.44 0.49 0.48 0.49 0.57 0.62 0.61 0.59 0.58 0.61 0.60 0.55 0.54 0.55 0.49 0.48 0.49 0.49 0.49 0.48 0.44 0.40 0.39 0.38 0.38 0.43 0.48 0.50 0.54 0.55 0.56 0.58 0.52 0.48 0.51 0.51 0.50 0.49 0.48 0.46 0.44 0.42 0.41
0.34 0.41 0.44 0.46 0.51 0.56 0.59 0.54 0.55 0.55 0.52 0.53 0.54 0.48 0.46 0.48 0.48 0.46 0.45 0.42 0.41 0.37 0.35 0.34 0.35 0.38 0.44 0.47 0.51 0.52 0.51 0.51 0.50 0.53 0.53 0.51 0.50 0.49 0.48 0.46 0.44 0.42 0.40
0.30 0.31 0.33 0.34 0.38 0.45 0.46 0.47 0.49 0.53 0.54 0.54 0.47 0.44 0.44 0.44 0.45 0.45 0.43 0.41 0.38 0.36 0.33 0.32 0.32 0.36 0.39 0.44 0.47 0.50 0.50 0.52 0.52 0.51 0.49 0.50 0.49 0.48 0.47 0.45 0.44 0.42 0.40
0.31 0.32 0.31 0.31 0.32 0.36 0.38 0.40 0.42 0.43 0.46 0.47 0.46 0.43 0.41 0.41 0.42 0.43 0.42 0.41 0.40 0.38 0.36 0.35 0.33 0.32 0.36 0.43 0.46 0.48 0.47 0.48 0.49 0.49 0.48 0.48 0.47 0.46 0.46 0.44 0.41 0.38 0.38
0.29 0.28 0.29 0.30 0.31 0.32 0.33 0.35 0.37 0.39 0.38 0.37 0.37 0.38 0.39 0.40 0.40 0.37 0.36 0.41 0.41 0.40 0.41 0.40 0.38 0.36 0.39 0.47 0.48 0.48 0.46 0.47 0.49 0.47 0.47 0.47 0.46 0.47 0.43 0.38 0.35 0.36 0.36
Wind_Speed
24 23 22 21 20 19 17 17 16 16 15 15 14 13 12 12 11 11 11 11 11 10 11 12 12 12 13 13 13 14 14 15 16 16 17 17 17 17 18 19 20 21 24
24 24 23 22 21 20 19 18 17 17 16 15 15 15 14 13 12 11 11 11 11 11 11 11 12 12 13 13 13 13 14 15 15 16 16 16 17 17 18 18 18 20 21
22 23 23 22 21 20 20 19 18 18 18 17 17 16 15 15 14 13 13 12 12 12 12 12 12 13 13 13 14 15 15 17 18 17 17 16 17 18 19 19 19 21 22
20 21 21 21 20 20 19 18 19 19 19 19 19 18 18 17 16 15 15 14 14 14 13 13 14 14 15 15 16 16 17 17 18 18 19 19 20 20 20 21 23 23 24
18 17 18 20 19 19 19 18 19 20 20 20 20 20 19 19 18 17 17 16 16 15 15 16 16 17 17 18 18 19 19 20 20 21 21 22 23 24 25 26 25 27 28
18 14 15 18 19 20 20 19 19 19 20 20 20 20 21 20 19 19 18 18 18 17 17 18 18 19 20 20 21 22 22 23 24 24 24 25 26 27 28 29 30 30 30
18 15 15 17 19 20 20 20 20 20 20 20 21 21 21 21 20 20 19 19 18 19 19 19 20 21 22 22 23 24 25 26 26 27 28 29 30 31 31 33 33 32 31
18 16 16 18 20 21 21 20 20 20 20 20 20 21 21 21 21 20 20 19 19 19 20 21 22 23 23 24 25 26 27 28 29 30 31 32 32 32 33 33 33 34 33
20 17 17 18 20 22 22 21 21 20 20 21 21 21 22 22 21 21 21 20 20 21 21 22 23 23 24 25 26 27 28 29 30 31 32 32 33 33 33 34 34 34 34
19 18 17 17 19 21 23 22 21 21 21 20 20 21 21 22 22 21 21 21 22 22 23 23 23 24 25 26 26 27 28 29 30 30 31 31 31 31 32 33 34 34 34
19 18 18 18 17 20 22 22 21 20 20 20 20 20 21 21 21 22 22 22 22 23 24 24 24 24 25 26 27 28 28 28 28 28 29 29 30 31 32 33 33 33 32
23 23 23 21 18 19 20 22 21 21 21 20 20 19 20 20 20 20 20 20 21 22 23 24 25 25 25 26 26 26 26 26 27 28 29 30 31 31 31 31 31 30 30
26 23 21 20 19 20 21 22 22 22 22 21 20 20 20 20 20 20 20 20 20 21 21 22 23 24 25 25 25 25 25 26 27 28 29 30 30 30 29 28 27 27 26
26 24 22 20 19 18 20 21 21 22 21 21 22 21 20 19 19 18 18 19 19 19 19 21 22 23 23 23 23 24 25 26 26 27 27 27 26 25 24 23 23 22 22
27 24 22 21 20 20 20 21 21 21 21 19 19 19 20 19 18 17 18 18 19 19 19 20 21 21 21 21 23 23 24 24 25 25 24 23 20 20 19 18 17 17 17
25 24 23 22 21 20 20 20 20 20 19 20 20 19 18 18 17 17 17 17 17 18 19 19 19 19 20 21 22 22 23 23 22 21 19 17 16 15 14 13 12 12 12
23 23 23 23 22 23 23 23 22 22 21 20 19 20 18 17 17 17 16 15 16 17 18 19 19 19 19 20 21 22 21 20 19 17 14 12 12 13 12 10 9 8 7
24 24 24 24 23 23 23 23 21 20 20 20 19 19 18 18 18 16 15 15 15 17 17 17 18 18 19 20 21 20 19 17 16 14 12 12 11 10 8 7 7 6 5
23 23 24 25 24 23 22 23 22 21 19 19 19 18 17 15 15 15 14 15 16 16 16 16 17 18 19 20 20 19 17 16 14 12 10 10 9 8 7 6 5 5 6
21 21 21 21 20 20 20 19 21 21 19 18 17 18 18 17 16 15 15 15 15 15 15 16 17 18 18 19 18 17 15 13 11 9 8 6 6 5 5 6 6 6 7
19 18 16 15 15 16 18 18 20 20 19 17 16 16 17 16 15 14 14 13 13 14 15 16 17 17 17 17 17 15 12 10 9 8 7 6 5 5 5 6 7 7 8
18 17 16 15 14 12 14 15 15 17 17 17 16 16 17 16 15 14 14 13 13 13 14 15 16 16 17 16 15 13 10 9 8 8 7 7 6 6 6 7 8 8 9
18 16 15 14 12 13 13 14 16 16 16 17 17 17 17 16 15 15 14 13 13 14 14 15 16 16 16 15 13 10 8 8 8 8 7 7 6 6 7 8 8 9 11
16 15 14 13 11 13 14 16 16 17 18 17 17 17 18 18 17 17 16 15 15 15 14 15 15 16 15 14 12 10 9 9 8 8 8 8 8 8 9 9 10 12 12
18 17 17 16 15 15 15 16 18 18 18 18 20 20 20 19 19 19 18 18 17 17 16 16 16 16 15 14 12 11 10 10 10 9 9 9 10 10 10 11 12 12 12
19 19 19 19 19 19 20 20 20 20 20 21 21 21 21 21 21 21 21 20 20 19 19 18 17 17 16 14 12 11 11 12 12 11 11 11 11 11 11 11 12 13 14
Wind_Direction
276 269 266 262 260 260 260 256 255 251 247 243 238 241 241 240 242 245 246 250 253 256 260 261 263 263 263 265 269 269 272 273 279 279 279 277 275 272 275 275 273 271 267
271 266 261 258 256 257 256 254 249 245 242 244 240 241 238 240 241 245 248 251 254 258 262 263 264 267 267 268 272 275 275 277 282 282 280 279 278 277 276 277 277 277 273
275 264 256 254 253 254 254 251 245 243 244 243 243 240 240 241 243 247 250 252 254 259 264 266 268 269 270 272 275 277 279 280 280 283 279 279 277 282 278 279 279 283 278
281 267 254 249 250 252 252 250 244 243 244 243 246 241 243 243 246 247 250 253 257 260 264 267 269 271 272 274 276 278 280 282 282 280 279 278 277 279 281 280 282 282 281
291 269 253 249 250 249 248 247 245 245 244 245 245 245 245 245 246 249 252 255 259 262 265 268 271 272 274 276 278 279 281 281 281 281 281 280 279 279 277 280 283 283 281
300 280 258 250 250 248 247 246 246 248 249 248 247 247 246 246 247 251 254 256 258 262 267 270 273 274 275 277 278 280 281 280 280 280 281 280 280 281 281 281 282 282 283
302 284 265 253 248 246 245 247 247 249 251 250 249 249 249 248 249 252 254 255 259 263 268 272 274 275 277 278 280 280 281 281 281 280 281 281 280 281 281 281 281 280 281
306 290 274 259 249 245 245 246 248 250 253 252 252 250 250 251 251 252 255 257 261 264 270 274 277 278 279 280 281 281 282 282 282 282 282 281 280 280 280 280 281 281 280
307 297 281 266 253 246 244 245 249 252 253 254 253 252 251 251 252 254 256 259 263 268 273 277 278 279 281 282 283 283 284 285 284 284 284 282 282 281 280 280 280 279 279
303 297 288 274 260 248 244 245 248 252 254 255 256 253 253 252 252 255 258 261 266 271 277 278 279 280 282 284 285 285 286 287 287 285 285 284 282 282 281 281 280 278 277
301 298 292 280 268 252 244 245 247 251 253 255 256 255 253 254 256 256 260 263 269 274 278 278 280 282 284 286 287 287 287 288 288 288 287 285 284 284 283 283 281 279 276
294 293 289 279 269 256 247 246 248 251 254 255 255 255 254 254 255 258 261 264 271 277 280 280 282 283 286 288 289 288 288 289 290 289 288 287 286 286 284 283 281 278 275
291 290 286 279 268 258 249 248 250 251 253 256 251 255 254 253 254 259 263 267 274 279 282 283 284 286 288 290 289 289 290 291 291 291 290 289 287 285 284 283 281 278 275
284 284 280 277 268 258 251 250 251 250 251 254 253 253 247 253 254 258 263 268 275 281 284 286 288 289 290 290 290 292 292 293 293 293 292 292 289 287 283 281 281 277 274
279 276 276 274 267 260 255 252 252 250 250 249 246 245 249 249 252 259 265 271 275 281 287 290 291 292 292 293 295 294 295 295 295 294 294 291 287 286 285 282 280 278 275
272 273 273 271 265 259 256 252 249 248 246 245 244 245 247 249 253 261 267 271 275 283 290 293 294 295 297 298 299 298 296 296 297 296 294 290 286 286 286 282 283 282 273
276 276 274 271 265 259 256 252 252 247 243 242 243 243 245 250 253 258 263 270 278 286 291 294 296 298 299 301 302 301 299 296 294 297 289 287 285 287 282 279 277 279 279
277 277 276 273 267 261 255 251 246 242 237 240 241 244 246 248 251 253 260 271 281 290 294 296 299 300 302 304 304 302 298 294 292 284 282 283 285 286 275 268 271 273 277
280 279 277 273 268 261 253 244 243 233 237 239 239 237 238 243 244 251 261 271 284 291 295 299 302 303 304 306 306 303 295 290 286 275 275 275 281 275 263 262 263 271 277
282 283 283 278 265 255 245 240 231 231 234 234 236 236 237 239 244 253 262 273 282 290 297 303 305 304 306 307 307 302 293 284 273 266 264 265 275 264 260 262 267 277 284
281 282 283 281 271 252 242 237 229 228 228 231 235 237 233 236 244 253 263 273 282 291 301 304 307 307 308 309 306 300 287 274 260 251 249 253 265 263 267 274 278 281 284
276 276 278 276 270 256 235 224 217 218 225 231 237 234 232 237 244 252 262 271 281 292 301 305 310 310 309 307 305 298 279 260 247 240 240 250 260 266 277 280 283 285 288
274 273 272 269 262 244 227 223 224 225 229 237 239 233 235 241 247 253 259 269 279 290 299 305 309 311 311 306 303 290 266 248 238 237 241 250 260 274 283 286 287 290 292
267 266 265 261 255 243 237 231 230 235 239 242 234 237 242 245 249 253 259 266 277 285 294 301 307 310 311 305 295 280 260 242 237 240 247 255 264 277 283 286 290 294 296
264 262 260 258 253 249 243 241 242 242 241 240 240 244 245 248 252 255 260 265 273 280 288 292 299 306 308 303 288 270 254 243 240 243 251 260 271 280 284 288 293 296 298
263 262 260 258 256 254 251 250 248 247 246 245 246 248 250 252 255 258 261 265 270 276 280 285 291 296 300 299 284 268 250 242 240 249 256 265 272 280 283 288 293 298 300